Theta_e
326 326 328 326 331 333 334 339 341 344 349 354 355 353 351 346 344 343 341 340 340 339 338 338 338 338 338 339 338 341 345 346 346 348 349 350 350 347 349 350 349 350 350 351
326 327 328 325 324 328 332 339 341 345 349 353 355 354 353 349 346 344 342 340 339 337 335 335 335 335 334 337 337 338 342 346 348 347 348 349 351 348 350 350 350 350 352 351
328 327 326 325 322 320 325 335 321 341 352 351 352 350 350 348 346 345 342 341 340 339 336 334 333 333 334 333 334 336 339 342 345 348 349 350 344 348 350 351 350 350 350 350
325 324 322 319 320 319 321 318 329 351 349 353 349 352 345 345 346 348 346 342 340 339 338 337 336 336 335 335 333 336 339 342 345 348 350 350 340 348 349 350 350 349 349 349
322 321 320 322 321 320 320 321 322 341 325 340 352 347 340 342 347 347 345 346 343 341 340 339 338 337 337 337 336 338 343 346 348 350 350 347 342 340 348 350 350 349 349 349
320 318 321 319 321 321 322 323 320 318 317 320 330 346 334 344 345 346 344 342 340 342 341 341 340 339 338 339 341 343 346 347 349 350 350 348 343 343 347 349 349 349 347 347
318 323 319 321 322 322 321 318 321 323 322 321 325 333 331 334 338 340 337 335 334 335 342 341 341 340 340 341 344 345 347 348 349 350 349 349 344 342 345 348 349 348 346 343
320 325 324 321 321 324 323 319 320 326 322 325 325 330 329 330 335 335 335 348 348 341 340 342 341 341 340 342 345 346 347 348 348 349 349 349 346 343 346 347 349 349 346 341
323 325 324 325 326 323 324 323 319 316 318 328 329 331 333 337 347 352 352 349 349 348 343 341 340 341 341 344 345 347 347 347 348 348 348 348 346 344 347 348 350 350 348 344
323 327 325 324 323 324 325 320 322 315 323 334 332 336 334 345 351 352 352 350 350 348 344 340 342 342 345 346 346 348 348 347 347 348 348 347 346 344 347 349 350 352 350 350
324 323 325 323 324 324 322 319 314 314 318 328 334 336 329 336 346 352 351 350 349 348 345 345 346 347 347 347 348 347 348 347 347 347 348 348 348 347 348 350 351 351 351 350
323 319 324 325 321 319 323 321 316 322 324 317 325 333 331 339 344 350 349 349 348 347 345 344 346 346 346 343 334 343 348 348 348 347 347 347 348 350 352 354 352 354 354 352
323 319 321 318 319 322 323 324 317 314 314 320 327 334 331 335 339 342 347 347 346 345 345 344 343 343 343 339 339 343 348 348 348 350 350 350 350 350 350 350 351 352 352 353
323 314 317 318 321 320 327 326 321 318 318 318 319 325 324 323 334 335 343 345 345 344 343 341 340 336 337 339 340 344 344 347 352 351 351 353 353 354 353 352 352 354 354 354
320 324 320 320 319 323 326 327 326 326 322 323 322 322 325 341 340 334 339 340 344 344 341 337 338 339 339 340 341 342 342 342 341 348 355 354 354 353 355 356 356 356 357 357
316 323 324 323 323 324 327 325 324 326 323 330 328 344 338 339 346 348 346 343 341 346 346 342 342 342 341 340 343 342 340 341 342 342 343 345 355 355 351 353 354 359 359 359
320 318 319 323 322 324 325 325 327 328 326 335 341 340 339 343 348 347 346 349 350 350 349 348 346 339 342 345 346 346 346 346 346 346 347 350 352 350 342 336 337 343 348 351
317 318 318 321 322 327 323 322 329 336 335 336 338 340 339 341 341 340 342 343 344 344 344 343 342 345 347 344 344 343 346 346 346 347 349 349 346 343 343 339 337 337 340 339
315 316 320 323 322 322 326 331 334 333 334 331 340 341 339 338 329 330 336 340 337 339 337 344 344 344 346 346 340 335 342 343 345 344 347 349 346 342 341 336 335 332 336 339
314 316 322 320 326 327 324 328 328 327 333 330 328 328 331 329 328 329 331 337 335 335 336 343 344 341 343 345 341 336 337 342 339 344 345 344 344 338 336 336 335 331 331 336
326 322 323 323 325 324 322 326 324 329 326 328 326 325 324 325 324 325 331 329 329 329 329 335 342 342 340 339 341 341 340 338 337 336 337 347 343 343 338 336 334 333 334 336
329 329 326 323 328 329 326 330 328 324 324 325 324 323 323 322 323 324 324 324 325 326 328 331 333 334 336 339 338 336 334 335 335 336 338 340 350 345 341 338 338 338 336 335
331 328 329 325 326 324 327 327 325 323 324 324 323 323 322 324 324 323 323 323 324 325 327 329 328 326 325 327 330 334 328 326 329 336 337 337 341 344 346 344 337 339 343 346
327 323 327 326 329 329 328 326 324 324 325 323 323 322 323 323 323 322 322 323 323 325 324 323 322 322 323 324 325 325 325 325 325 326 328 332 335 335 336 339 339 346 346 347
324 325 327 328 329 329 329 327 325 325 324 324 322 324 323 322 322 321 322 322 322 323 323 324 324 324 325 325 324 324 324 325 326 326 326 327 330 332 333 333 334 333 334 343
322 324 326 327 324 326 327 326 326 325 324 324 324 324 323 321 322 321 320 320 321 323 325 324 324 323 321 321 321 320 318 323 319 320 323 325 326 328 330 332 334 335 336 336
Wind_Speed
2 3 6 10 9 10 9 2 5 3 7 4 5 6 12 16 13 14 15 16 19 20 21 27 30 32 32 28 26 29 34 34 35 31 28 24 24 22 20 19 18 20 21 17
6 7 12 7 6 9 4 6 4 4 10 2 6 12 3 13 16 16 17 17 19 16 15 21 29 31 30 32 33 32 32 36 35 36 32 31 29 26 21 19 19 19 21 18
6 12 4 7 10 3 3 6 4 6 6 6 7 7 10 4 8 15 16 15 16 17 18 17 23 30 32 32 33 38 41 39 38 37 33 29 26 24 21 19 20 20 20 21
6 6 3 5 4 5 2 9 7 14 5 4 7 5 6 6 11 8 13 19 19 19 17 17 21 28 32 35 34 34 38 41 41 40 38 34 30 26 29 26 22 20 20 20
8 6 6 4 6 4 8 5 8 9 6 6 3 3 7 3 6 13 14 17 17 21 21 21 21 29 32 30 32 35 39 40 38 43 42 38 32 34 29 26 24 23 22 20
10 4 5 8 3 2 4 2 6 4 4 1 6 8 6 5 9 5 5 10 13 17 24 24 32 32 29 30 31 34 37 39 40 43 44 40 37 33 29 26 24 24 24 24
6 5 5 3 3 4 7 7 4 5 5 4 3 4 8 6 5 7 4 8 11 16 20 22 22 23 25 26 30 30 36 35 41 43 43 44 40 34 32 30 27 26 23 24
2 8 8 5 3 5 3 6 5 2 1 4 2 3 5 2 4 3 7 5 3 4 11 18 20 22 27 30 32 33 35 35 39 43 44 46 41 37 34 29 28 25 24 24
4 5 5 2 3 6 2 2 3 6 3 3 3 5 4 6 7 5 5 4 7 6 5 10 14 22 28 30 36 38 36 37 38 45 43 43 42 40 37 33 29 27 26 23
5 2 2 7 6 4 3 5 3 4 2 1 5 3 3 1 3 2 6 5 0 5 6 7 8 17 20 19 18 20 30 40 44 44 41 42 44 42 40 35 33 31 28 24
3 3 7 2 4 2 6 5 6 5 4 4 1 6 6 4 4 6 2 4 3 6 6 8 10 21 24 17 11 23 25 28 30 36 38 36 38 41 41 39 36 32 29 27
2 4 2 4 3 3 2 3 4 5 2 2 4 5 2 3 3 1 6 5 2 4 4 6 11 23 27 33 32 40 31 28 34 33 35 39 39 39 37 41 41 37 33 30
4 3 3 8 7 5 6 3 5 6 3 2 4 5 4 6 5 4 6 7 5 4 5 5 5 5 1 3 5 10 19 30 28 29 30 30 30 32 38 40 38 36 40 39
7 3 6 5 6 2 4 5 4 5 3 3 5 4 4 6 9 4 3 5 6 3 4 2 6 6 14 12 8 4 1 2 8 14 24 30 34 37 40 42 41 38 38 38
4 3 3 6 5 2 4 2 4 1 5 6 5 6 5 9 8 6 6 4 5 4 4 4 4 4 9 8 7 6 9 5 2 18 29 33 26 26 33 39 40 38 37 38
3 2 1 4 2 1 4 7 7 3 5 5 6 4 4 7 1 7 6 8 8 3 1 5 4 2 8 10 8 6 12 14 16 15 19 23 8 27 18 15 18 28 32 32
2 5 3 4 4 5 5 4 2 0 2 8 4 5 3 5 9 8 11 9 7 3 3 5 4 3 3 8 13 11 8 2 8 16 18 5 7 15 7 39 40 28 13 22
7 5 3 3 3 2 7 6 3 11 5 8 9 5 4 5 4 7 7 7 7 5 6 7 7 11 12 15 13 5 8 8 3 8 12 12 15 21 16 7 27 31 16 40
4 6 3 4 4 5 1 4 6 5 3 2 6 4 5 5 5 8 6 5 5 5 3 2 1 6 8 12 15 11 2 4 6 10 15 23 24 23 20 6 11 15 17 53
6 3 5 3 4 7 8 2 9 8 1 4 5 7 7 3 5 3 4 2 5 5 7 7 7 5 8 11 11 13 15 14 18 15 15 14 18 12 7 18 31 47 37 36
3 3 5 3 4 7 7 5 6 4 7 7 7 7 7 5 5 5 3 4 5 6 7 3 7 9 11 10 13 19 25 29 23 18 17 18 19 15 19 28 27 40 45 37
3 2 4 3 2 6 8 2 8 6 5 10 7 7 7 7 8 7 6 5 6 7 11 10 9 7 8 7 11 19 23 29 26 21 21 19 17 23 25 31 34 36 38 36
2 6 3 7 6 4 3 3 4 8 9 7 8 6 8 9 7 7 6 7 6 8 8 8 8 8 10 12 10 11 18 20 22 23 24 19 19 15 14 24 32 31 35 30
3 3 3 2 3 4 4 5 4 4 6 7 6 8 8 9 7 6 6 6 6 11 8 5 4 4 10 14 14 16 21 24 26 26 26 19 14 18 23 22 17 18 21 21
5 1 2 1 2 3 5 1 7 7 7 8 5 7 8 8 7 7 7 6 7 7 7 6 6 7 9 14 21 24 24 24 23 25 29 30 22 13 15 21 26 25 24 21
4 6 4 5 6 5 6 6 6 8 7 9 8 5 3 6 8 7 6 7 7 8 5 4 4 6 10 12 15 17 22 20 25 25 25 26 28 28 19 16 19 21 22 27
Wind_Direction
334 49 249 239 204 240 225 270 243 201 171 129 219 254 178 189 197 194 192 204 199 210 214 211 215 219 218 223 219 215 214 215 217 211 207 210 215 217 220 222 225 218 221 225
6 274 269 277 180 243 126 208 256 13 160 54 180 246 189 184 202 207 197 202 214 209 213 218 219 218 220 215 218 219 217 217 217 214 213 214 216 212 217 226 229 220 223 226
178 249 320 260 302 175 219 183 219 144 113 26 110 310 267 203 191 206 213 207 216 217 207 211 218 222 219 218 212 214 217 220 223 217 213 214 218 211 217 223 220 220 224 230
231 270 265 337 251 163 14 199 143 138 132 189 207 250 273 209 234 210 204 209 210 211 212 216 210 222 222 218 218 217 215 217 220 214 211 209 204 204 216 223 220 219 223 225
258 280 312 290 249 167 235 190 172 171 145 107 226 7 265 97 248 231 209 214 215 212 212 212 214 216 225 219 217 214 211 211 208 210 211 212 215 214 216 218 223 224 227 225
243 242 189 218 249 225 291 50 53 75 118 74 209 170 282 191 211 269 199 219 223 221 213 211 213 210 213 213 208 204 203 206 205 210 211 214 215 216 218 219 225 230 230 228
320 302 263 227 314 345 58 46 2 0 15 227 340 113 257 275 222 230 280 257 259 222 212 211 206 200 204 194 195 197 200 201 205 209 211 216 219 217 219 223 226 233 232 227
44 355 354 349 207 189 356 131 143 205 243 267 317 281 296 326 69 176 151 246 320 290 214 203 204 195 191 184 187 193 199 203 202 207 212 216 220 220 221 224 230 239 236 237
163 278 302 224 291 128 186 24 178 105 14 52 298 308 337 56 60 59 112 46 7 334 227 173 184 183 184 180 187 194 197 203 205 209 209 215 220 222 225 223 227 236 237 240
213 25 277 295 34 15 85 157 31 7 81 351 327 320 241 61 167 207 62 71 63 51 59 123 141 153 161 168 180 208 207 202 208 211 212 215 220 224 227 228 230 230 235 235
110 101 287 27 10 274 10 15 53 111 103 147 124 273 220 225 248 129 123 86 114 124 137 126 118 127 142 139 182 226 224 215 210 208 213 214 221 225 228 232 233 233 234 233
14 122 289 221 288 349 26 107 116 110 255 49 143 276 253 245 229 256 156 127 135 107 119 124 136 144 152 169 187 222 222 213 212 216 214 216 220 225 226 231 236 236 237 238
181 17 14 350 359 4 48 336 108 97 77 194 118 262 318 319 296 280 154 151 175 155 137 154 162 150 207 198 295 306 226 217 218 215 217 221 221 222 228 234 238 239 241 242
81 103 143 175 217 204 320 346 79 116 112 191 215 238 339 307 286 322 156 193 190 179 171 23 360 18 36 45 35 24 294 288 239 282 253 228 224 225 232 237 238 239 244 244
93 132 191 222 240 241 255 286 326 187 193 171 236 204 289 304 286 200 195 135 42 300 12 18 298 22 58 51 65 18 350 360 351 204 232 243 241 248 241 234 238 240 242 244
13 219 137 314 276 171 274 290 285 207 131 56 108 58 298 303 201 58 48 122 107 83 309 266 292 326 135 170 177 196 247 276 289 288 285 279 230 253 304 309 294 244 234 237
142 135 92 257 348 356 342 257 216 240 347 151 153 185 283 42 59 44 67 73 93 104 32 324 356 353 251 190 178 194 169 259 293 280 281 187 151 136 128 27 356 325 311 303
158 123 125 215 34 295 240 304 152 112 51 95 93 136 153 121 99 68 38 67 71 74 19 345 326 307 283 248 247 246 159 158 216 228 229 185 157 134 131 86 356 311 308 291
193 129 134 155 186 284 310 166 156 114 355 75 131 159 158 133 52 38 41 83 117 164 218 288 241 279 284 269 273 277 354 40 219 220 217 195 189 174 166 180 112 239 212 266
85 70 132 132 162 213 231 192 133 119 132 209 169 178 196 124 77 282 336 69 100 153 203 218 216 223 246 268 285 293 284 273 281 297 294 288 261 242 272 197 206 208 228 257
352 21 171 160 209 281 250 209 150 152 220 156 169 160 147 135 173 177 130 65 59 71 98 183 235 273 281 285 290 291 289 284 293 288 292 283 268 267 246 230 219 218 239 254
182 164 219 109 132 273 197 90 167 188 124 152 174 163 136 137 135 135 134 104 106 93 80 89 87 48 18 329 298 299 301 311 311 313 302 294 278 260 253 247 241 234 236 237
268 188 203 175 217 265 284 201 135 146 144 179 154 159 138 136 142 152 132 129 131 117 96 89 73 46 33 20 2 322 334 342 337 321 308 298 272 276 254 236 235 233 230 225
257 155 185 73 309 331 34 51 84 125 142 154 155 143 137 139 157 123 119 124 124 131 122 118 99 37 353 350 349 345 338 336 333 331 327 324 289 284 293 273 265 260 244 231
203 122 153 307 300 45 345 240 154 136 120 118 122 137 143 133 137 135 136 141 145 137 122 100 60 12 343 332 326 329 331 329 330 327 323 323 323 307 296 295 287 278 270 270
196 183 159 218 206 160 220 192 162 138 152 147 137 127 123 142 137 137 140 143 132 115 98 60 27 344 329 323 322 323 324 321 323 320 318 320 320 320 318 311 295 288 279 278